DELTA 1 DEB, 7191

Orbit data source: Space-Track

DELTA 1 DEB, 7191 is space debris in SSO originally from a launch on Tue, 06 Nov 1973 UTC launched from the Air Force Western Test Range (AFWTR). Debris objects in space refer to the collection of defunct objects orbiting the Earth. Examples of debris include non-operational satellites, rocket bodies, and fragments generated from explosions, collisions, or faulty payload assembly.

Loading next visibility...
Identifier
7191, 1973-086EZ
Orbit
SSO
Country
Flag of USUS
Related business
Manufacturer
Unknown
Mission
Spacecraft
Bus & Motor
Unknown
Mass
Unknown
Launch date (UTC)
1973-11-06 (52 years ago)
Launch vehicle
Unknown
Launch site
Air Force Western Test Range (AFWTR)
Object type
Payload
Rocket body
Debris
Shape & HBR
Unknown shape, 0.2 m
Radar Cross Section
Small (<0.1 m²)

Expand to show TLE details & history
Last TLE update: 1 day ago

TLE from 1 day ago
0 DELTA 1 DEB
1 07191U 73086EZ  26123.51705293  .00000058  00000-0  94235-3 0  9997
2 07191 102.1419  11.6077 0252764  69.6000  50.0166 12.13297291890616
Epoch: 2026-05-03T12:24Z
TLE epoch observation values (Epoch: 2026-05-03T12:24:33.373Z)
Latitude
56.20836°
Longitude
162.70645°
Altitude
1,504.136 km
Speed
7.174 km/s
True Right ascension
14h 01m 03s
True Declination
56° 03' 51"
Sunlit
Object was in daylight at epoch
Visualization orbit readout
Latitude
Unknown
Longitude
Unknown
Altitude
Unknown
Speed
Unknown
Apparent Right ascension
Unknown
Apparent Declination
Unknown
Sunlit
N/A
Visualization observer readout
Local Sidereal Time
01:34:15
Azimuth
Unknown
Elevation
Unknown
Doppler factor
Unknown
Orbital elements
Apogee altitude
1,821.637 km
Perigee altitude
1,417.335 km
Semi-major axis
7,997.623 km
Eccentricity
0.02528
Inclination
102.1419°
RAAN
11.6077°
Arg. of periapsis
69.6°
True anomaly
52.28132°
Mean anomaly
50.0166°
Eccentric anomaly
51.14438°
Mean motion
3.0346 °/min
Orbital period
118.63 mins
BSTAR
0.00094235
Loading maneuver chart data...
Computing Atmospheric mass density...
Loading historical data...
Loading historical data...
Loading historical data...
Loading historical data...
Loading historical data...
Loading historical data...
Loading historical data...

Documentation

Showing up to 5 results
|